NIMBUS 2 DEB, 28204

Orbit data source: Space-Track

NIMBUS 2 DEB, 28204 is space debris in SSO originally from a launch on Sun, 15 May 1966 UTC launched from the Air Force Western Test Range (AFWTR). Debris objects in space refer to the collection of defunct objects orbiting the Earth. Examples of debris include non-operational satellites, rocket bodies, and fragments generated from explosions, collisions, or faulty payload assembly.

Loading next visibility...
Identifier
28204, 1966-040S
Orbit
SSO
Country
Flag of USUS
Related business
Manufacturer
Unknown
Mission
Spacecraft
Bus & Motor
Unknown
Mass
Unknown
Launch date (UTC)
1966-05-15 (59 years ago)
Launch vehicle
Unknown
Launch site
Air Force Western Test Range (AFWTR)
Object type
Payload
Rocket body
Debris
Shape & HBR
Unknown shape, 0.1 m
Radar Cross Section
Small (<0.1 m²)

Expand to show TLE details & history
Last TLE update: 3 days ago

TLE from 3 days ago
0 NIMBUS 2 DEB
1 28204U 66040S   25284.01550912  .00005176  00000-0  54461-2 0  9997
2 28204 100.1814 189.0433 0040732 298.5251  77.7396 13.74917495596390
Epoch: 2025-10-11T00:22Z
TLE epoch observation values (Epoch: 2025-10-11T00:22:19.987Z)
Latitude
16.43537°
Longitude
160.58594°
Altitude
977.879 km
Speed
7.367 km/s
True Right ascension
12h 24m 05s
True Declination
16° 20' 42"
Sunlit
Object was in daylight at epoch
Visualization orbit readout
Latitude
Unknown
Longitude
Unknown
Altitude
Unknown
Speed
Unknown
Apparent Right ascension
Unknown
Apparent Declination
Unknown
Sunlit
N/A
Visualization observer readout
Local Sidereal Time
01:31:28
Azimuth
Unknown
Elevation
Unknown
Doppler factor
Unknown
Orbital elements
Apogee altitude
1,009.231 km
Perigee altitude
949.295 km
Semi-major axis
7,357.4 km
Eccentricity
0.00407
Inclination
100.1814°
RAAN
189.0433°
Arg. of periapsis
298.5251°
True anomaly
78.1962°
Mean anomaly
77.7396°
Eccentric anomaly
77.96785°
Mean motion
3.43919 °/min
Orbital period
104.68 mins
BSTAR
0.0054461
Loading maneuver chart data...
Computing Atmospheric mass density...
Loading historical data...
Loading historical data...
Loading historical data...
Loading historical data...
Loading historical data...
Loading historical data...
Loading historical data...

Documentation

Showing up to 5 results
|